DW0126 Weather Reports


Display with metric or nautical units.
time (UTC)temp
F
wind
direction
speed
MPH
gust
MPH
rain 1hr
in
rain 24hr
in
rain mn
in
humidity
%
barometer
mb
20260507014216 56 248 3.0 5.0 0.00 0.00 0.00 78 1020.0
20260507013216 57 248 6.0 8.0 0.00 0.00 0.00 77 1020.0
20260507012236 57 293 4.0 6.0 0.00 0.00 0.00 77 1020.1
20260507011216 57 248 6.0 10.0 0.00 0.00 0.00 76 1020.0
20260507010216 57 293 4.0 8.0 0.00 0.00 0.00 76 1020.0
20260507005216 58 293 4.0 7.0 0.00 0.00 0.00 75 1020.0
20260507004216 58 248 7.0 11.0 0.00 0.00 0.00 75 1020.1
20260507003216 58 248 5.0 8.0 0.00 0.00 0.00 74 1020.1
20260507002236 59 225 5.0 9.0 0.00 0.00 0.00 73 1020.1
20260507001216 59 225 7.0 10.0 0.00 0.00 0.00 72 1020.1
20260507000219 60 203 6.0 10.0 0.00 0.00 0.00 73 1020.2
20260506235216 59 248 5.0 8.0 0.00 0.00 0.00 74 1020.3
20260506234216 59 270 7.0 9.0 0.00 0.00 0.00 73 1020.3
20260506233216 59 248 8.0 12.0 0.00 0.00 0.00 72 1020.2
20260506232216 59 248 6.0 10.0 0.00 0.00 0.00 73 1020.2
20260506231216 60 270 7.0 15.0 0.00 0.00 0.00 72 1020.3
20260506230216 60 225 5.0 9.0 0.00 0.00 0.00 71 1020.1
20260506225236 60 248 4.0 8.0 0.00 0.00 0.00 71 1020.1
20260506224216 60 225 4.0 8.0 0.00 0.00 0.00 72 1020.2
20260506223236 60 248 8.0 13.0 0.00 0.00 0.00 72 1020.3
20260506222216 60 248 4.0 6.0 0.00 0.00 0.00 72 1020.3
20260506221216 60 248 8.0 16.0 0.00 0.00 0.00 72 1020.6
20260506220216 60 270 6.0 9.0 0.00 0.00 0.00 73 1020.5
20260506215216 60 248 7.0 10.0 0.00 0.00 0.00 72 1020.5
20260506214216 59 248 6.0 10.0 0.00 0.00 0.00 72 1020.5
20260506213216 60 293 6.0 10.0 0.00 0.00 0.00 72 1020.6
20260506212216 60 248 7.0 10.0 0.00 0.00 0.00 71 1020.5
20260506211236 60 248 6.0 9.0 0.00 0.00 0.00 72 1020.5
20260506210216 60 248 4.0 8.0 0.00 0.00 0.00 73 1020.4
20260506205216 59 293 5.0 12.0 0.00 0.00 0.00 73 1020.5
20260506204216 59 225 5.0 7.0 0.00 0.00 0.00 74 1020.4
20260506203216 59 225 4.0 8.0 0.00 0.00 0.00 73 1020.3
20260506202236 59 270 3.0 7.0 0.00 0.00 0.00 74 1020.3
20260506201216 59 225 3.0 6.0 0.00 0.00 0.00 75 1020.3
20260506200236 58 225 2.0 4.0 0.00 0.00 0.00 75 1020.3
20260506195216 58 248 3.0 4.0 0.00 0.00 0.00 76 1020.2
20260506194216 58 248 4.0 6.0 0.00 0.00 0.00 76 1020.2
20260506193216 57 248 6.0 9.0 0.00 0.00 0.00 77 1020.2
20260506192216 57 248 3.0 6.0 0.00 0.00 0.00 77 1020.0
20260506191216 56 248 4.0 6.0 0.00 0.00 0.00 78 1020.1
20260506190216 56 248 4.0 8.0 0.00 0.00 0.00 78 1020.0
20260506185216 56 248 5.0 8.0 0.00 0.00 0.00 78 1020.2
20260506184216 56 248 3.0 5.0 0.00 0.00 0.00 79 1020.1
20260506183216 56 248 4.0 7.0 0.00 0.00 0.00 81 1020.1
20260506182216 56 225 3.0 4.0 0.00 0.00 0.00 82 1019.8
20260506181216 55 225 4.0 5.0 0.00 0.00 0.00 82 1019.7
20260506180216 55 248 4.0 5.0 0.00 0.00 0.00 82 1019.9
20260506175216 54 225 4.0 6.0 0.00 0.00 0.00 84 1019.9
20260506174216 54 248 4.0 7.0 0.00 0.00 0.00 84 1019.7
20260506173216 54 225 3.0 7.0 0.00 0.00 0.00 85 1019.7
20260506172216 54 225 4.0 6.0 0.00 0.00 0.00 86 1019.9
20260506171216 54 248 5.0 8.0 0.00 0.00 0.00 88 1019.9
20260506170216 54 225 4.0 7.0 0.00 0.00 0.00 89 1019.8
20260506165236 54 225 4.0 6.0 0.00 0.00 0.00 90 1019.7
20260506164216 53 225 4.0 7.0 0.00 0.00 0.00 91 1019.8
20260506163216 53 248 3.0 5.0 0.00 0.00 0.00 91 1019.6
20260506162216 53 225 4.0 7.0 0.00 0.00 0.00 92 1019.5
20260506161216 53 0.0 1.0 0.00 0.00 0.00 92 1019.4
20260506160216 52 248 4.0 6.0 0.00 0.00 0.00 93 1019.3
20260506155216 52 225 3.0 5.0 0.00 0.00 0.00 93 1019.3
20260506154216 52 225 3.0 7.0 0.00 0.00 0.00 93 1019.2
20260506153216 52 225 2.0 3.0 0.00 0.00 0.00 94 1019.4
20260506152216 52 248 3.0 5.0 0.00 0.00 0.00 94 1019.4
20260506151216 52 225 1.0 3.0 0.00 0.00 0.00 94 1019.4
20260506150216 52 248 3.0 5.0 0.00 0.00 0.00 94 1019.3
20260506145216 52 248 3.0 5.0 0.00 0.00 0.00 94 1019.4
20260506144216 51 248 2.0 4.0 0.00 0.00 0.00 94 1019.4
20260506143216 51 225 3.0 5.0 0.00 0.00 0.00 93 1019.3
20260506142216 51 248 2.0 3.0 0.00 0.00 0.00 93 1018.9
20260506141216 51 248 2.0 4.0 0.00 0.00 0.00 93 1019.1
20260506140216 51 225 2.0 4.0 0.00 0.00 0.00 93 1019.0
20260506135216 51 0.0 0.0 0.00 0.00 0.00 93 1019.2
20260506134216 51 0.0 0.0 0.00 0.00 0.00 93 1019.1
20260506133216 51 0.0 0.0 0.00 0.00 0.00 93 1019.1
20260506132236 51 225 3.0 5.0 0.00 0.00 0.00 93 1019.0
20260506131216 51 225 3.0 4.0 0.00 0.00 0.00 93 1019.0
20260506130216 52 225 3.0 5.0 0.00 0.00 0.00 93 1018.8
20260506125216 52 248 1.0 4.0 0.00 0.00 0.00 93 1018.6
20260506124216 52 225 3.0 6.0 0.00 0.00 0.00 93 1018.7
20260506123216 52 248 4.0 5.0 0.00 0.00 0.00 93 1018.6
20260506122216 52 225 2.0 3.0 0.00 0.00 0.00 93 1018.5
20260506121236 52 225 2.0 3.0 0.00 0.00 0.00 92 1018.5
20260506120216 52 225 2.0 4.0 0.00 0.00 0.00 92 1018.4
20260506115236 52 248 2.0 3.0 0.00 0.00 0.00 92 1018.3
20260506114216 52 270 2.0 3.0 0.00 0.00 0.00 92 1018.1
20260506113216 52 225 1.0 2.0 0.00 0.00 0.00 91 1018.1
20260506112216 52 158 2.0 4.0 0.00 0.00 0.00 91 1018.2
20260506111216 52 225 3.0 4.0 0.00 0.00 0.00 91 1018.1
20260506110216 52 225 3.0 5.0 0.00 0.00 0.00 91 1018.1
20260506105216 52 0.0 0.0 0.00 0.00 0.00 90 1018.0
20260506104216 53 225 3.0 4.0 0.00 0.00 0.00 90 1017.9
20260506103216 53 248 3.0 4.0 0.00 0.00 0.00 89 1017.8
20260506102216 53 248 1.0 3.0 0.00 0.00 0.00 89 1017.8
20260506101236 53 248 3.0 5.0 0.00 0.00 0.00 88 1017.7
20260506100216 53 248 3.0 5.0 0.00 0.00 0.00 88 1017.6
20260506095216 53 225 3.0 9.0 0.00 0.00 0.00 88 1017.6
20260506094216 53 248 2.0 3.0 0.00 0.00 0.00 87 1017.5
20260506093216 53 225 2.0 3.0 0.00 0.00 0.00 87 1017.4
20260506092216 53 248 3.0 5.0 0.00 0.00 0.00 87 1017.5
20260506091216 53 248 4.0 5.0 0.00 0.00 0.00 87 1017.5
20260506090236 53 203 3.0 5.0 0.00 0.00 0.00 87 1017.5
20260506085216 54 225 3.0 4.0 0.00 0.00 0.00 87 1017.3
20260506084216 54 248 3.0 4.0 0.00 0.00 0.00 87 1017.2
20260506083216 54 225 5.0 7.0 0.00 0.00 0.00 87 1017.1
20260506082216 54 248 3.0 5.0 0.00 0.00 0.00 87 1017.0
20260506081216 54 248 2.0 4.0 0.00 0.00 0.00 88 1016.9
20260506080216 54 248 3.0 6.0 0.00 0.00 0.00 88 1016.9
20260506073216 53 0.0 0.0 0.00 0.00 0.00 90 1016.5
20260506072215 53 225 1.0 2.0 0.00 0.00 0.00 90 1016.5
20260506071236 53 248 2.0 4.0 0.00 0.00 0.00 90 1016.4
20260506070216 53 0.0 0.0 0.00 0.00 0.00 90 1016.3
20260506062236 53 0.0 0.0 0.00 0.00 0.00 89 1016.1
20260506061216 53 0.0 0.0 0.00 0.00 0.00 88 1016.0
20260506060216 53 0.0 0.0 0.00 0.00 0.00 88 1015.9
20260506051217 54 0.0 0.0 0.00 0.00 0.00 86 1015.7
20260506050216 55 203 1.0 1.0 0.00 0.00 0.00 86 1015.7
20260506044237 55 225 1.0 2.0 0.00 0.00 0.00 84 1015.6
20260506043217 56 0.0 0.0 0.00 0.00 0.00 84 1015.6
20260506042217 56 0.0 0.0 0.00 0.00 0.00 84 1015.5
20260506041216 57 0.0 0.0 0.00 0.00 0.00 83 1015.4
20260506040216 57 0.0 0.0 0.00 0.00 0.00 83 1015.3
20260506035216 58 0.0 0.0 0.00 0.00 0.00 82 1015.1
20260506034216 58 0.0 0.0 0.00 0.00 0.00 80 1015.0
20260506033216 59 203 2.0 4.0 0.00 0.00 0.00 79 1015.0
20260506032216 59 225 2.0 4.0 0.00 0.00 0.00 78 1014.9
20260506031216 60 0.0 0.0 0.00 0.00 0.00 77 1014.8
20260506030216 61 225 3.0 5.0 0.00 0.00 0.00 76 1014.7
20260506025216 61 225 3.0 4.0 0.00 0.00 0.00 74 1014.6
20260506024216 62 270 2.0 4.0 0.00 0.00 0.00 73 1014.7
20260506023217 62 248 4.0 6.0 0.00 0.00 0.00 73 1014.7
20260506022216 63 270 2.0 4.0 0.00 0.00 0.00 72 1014.7
20260506021257 63 248 4.0 6.0 0.00 0.00 0.00 71 1014.7
20260506020216 64 270 2.0 4.0 0.00 0.00 0.00 71 1014.7
20260506015217 64 248 5.0 6.0 0.00 0.00 0.00 71 1014.6